Cancún International Airport
MMUN : now visible

Airfield :











YOU CAN JOIN US ON...

 
LOGIN :

Register | Disclaimer

   EN    FR    IT 

 









Legend :    VFR   Marginal VFR   IFR   Intensive IFR   Very Intensive IFR
Visi :
Ceiling :
>= 8 km
>= 3000ft
5 to 8 km
1000 to 3000 ft
1500m to 5 km
500 to 1000 ft
800 to 1500m
200 to 500 ft
< 800m
< 200 ft
Symbols :   Thunderstorms  Fog  Heavy snow  Heavy precipitations  Wind > 20 kt






- Airport Elevation : 20 ft
- IATA code : CUN


MMUN - Cancún International

CURRENT METAR :
  • 050743Z 10006KT 7SM FEW015 29/25 A3002 RMK 8/100

EXPIRED METARs :
  • 050644Z 09006KT 7SM FEW015 29/25 A3003 RMK 8/100
  • 050544Z 09007KT 7SM SCT015 29/25 A3004 RMK SLP166 54000 901 8/100

TAF TAF MMUN
Valid from the 05 at 06:00 until the 06 at 12:00 UTC


050513Z 0506/0612 09006KT P6SM SCT015 TX33/0519Z TN27/0512Z
FM051800 09010KT P6SM BKN015
FM060600 09005KT P6SM SCT015
MMFR FIR / North America



MET'MAP, your aeronautical weather chart ! - Copyright ORBIFLY December 2007 - Disclaimer

ORBIFLY MET'MAP TEAM :

Programming & Development : Alexandra Zaïnal
Concept & original design : Baudouin d'Aumeries
Assistance for programming : Marc-Olivier Méhu
Technical & hardware support : Manuel Goepfert

Contact : metmap@orbifly.com




SOURCES & CREDITS :

   NOAA       Earth
Advisory